Location: Unspecified
(0.0000°N, 0.0000°E)
Time: 11:24:35
(UTC+00:00)

Vanguard 1 Rocket - Pass Details

Date: 24 November 2019
Orbit: 650 x 4226 km, 34.3° (Epoch: 07 December)

Event Time Altitude Azimuth Distance (km) Brightness Sun altitude
Rises 07:59:33 0° 329° (NNW) 3,647 10.1 30.9°
Reaches altitude 10° 08:01:55 10° 339° (NNW) 2,971 9.7 31.4°
Maximum altitude 08:08:40 36° 44° (NE) 2,358 10.1 33.0°
Drops below altitude 10° 08:20:41 10° 105° (ESE) 5,310 12.6 35.7°
Sets 08:26:37 0° 112° (ESE) 6,953 12.9 37.0°
